Location: La Oliva
(42.2466°N, 2.9955°E)
Time: 10:07:10
(UTC+00:00)

Cosmos 2322 - Pass Details

Date: 22 April 2021
Orbit: 843 x 852 km, 71.0° (Epoch: 10 May)

Event Time Altitude Azimuth Distance (km) Brightness Sun altitude
Rises 19:16:11 0° 332° (NNW) 3,408 7.8 -7.5°
Reaches altitude 10° 19:18:40 10° 329° (NNW) 2,469 7.1 -7.9°
Maximum altitude 19:24:13 59° 251° (WSW) 966 4.3 -8.8°
Drops below altitude 10° 19:29:45 10° 173° (S) 2,454 5.8 -9.8°
Sets 19:32:12 0° 169° (S) 3,385 6.5 -10.2°
